Home > Weather > Lampertheim > Past weeks

Flag for Germany Weather for the Past 2 Weeks in Lampertheim, Hesse, Germany

Now
39 °F

Clear.


Feels Like: 35 °F
Forecast: 48 / 73 °F
Wind: 6 mph from East

Location: Frankfurt-M-Flughafen Airport

Current Time: May 5, 2016 at 5:59:05 AM

Latest Report: May 5, 2016 at 5:20 AM


Visibility: 10 mi

Pressure: 30.33 "Hg

Humidity: 75%

Dew Point: 32 °F

Location of LampertheimLocation

Historic Weather in Lampertheim — Graph

°F

Lampertheim Temperature Yesterday

Maximum temperature yesterday: 61 °F (at 4:50 PM)
Minimum temperature yesterday: 32 °F (at 5:50 AM)
Average temperature yesterday: 50 °F

High & Low Weather Summary for the Past Weeks

 TemperatureHumidityPressure
High70 °F (Apr 21, 4:50 PM)93% (Apr 24, 2:50 AM)30.45 "Hg (Apr 24, 2:50 AM)
Low30 °F (Apr 24, 4:50 AM)22% (Apr 20, 5:50 PM)29.56 "Hg (Apr 26, 12:20 AM)
Average48 °F61%30.03 "Hg
* Reported Apr 20 4:20 AM — May 5 4:50 AM, Lampertheim, Weather by CustomWeather, © 2016

Note: Actual official high and low records may vary slightly from our data, if they occured in-between our weather recording intervals... More about our weather records

Advertising

Lampertheim Weather History for the Previous 24 Hours

Scroll right to see more
 ConditionsComfort  
Time TempWeatherWind HumidityBarometerVisibility
4:50 AM
Thu, May 5
43 °FClear.6 mph61%30.33 "Hg10 mi
4:20 AM45 °FClear.9 mph57%30.33 "Hg10 mi
3:50 AM45 °FClear.8 mph57%30.33 "Hg10 mi
3:20 AM45 °FPassing clouds.3 mph61%30.33 "HgN/A
2:50 AM41 °FPassing clouds.3 mph70%30.33 "HgN/A
2:20 AM43 °FPassing clouds.7 mph66%30.33 "HgN/A
1:50 AM43 °FClear.6 mph66%30.33 "Hg10 mi
1:20 AM45 °FPassing clouds.5 mph61%30.33 "HgN/A
12:50 AM48 °FPassing clouds.5 mph50%30.33 "HgN/A
12:20 AM48 °FClear.7 mph50%30.33 "Hg10 mi
11:50 PM
Wed, May 4
50 °FClear.7 mph47%30.33 "Hg10 mi
11:20 PM52 °FClear.7 mph41%30.33 "Hg10 mi
10:50 PM52 °FClear.8 mph38%30.33 "Hg10 mi
10:20 PM54 °FClear.10 mph35%30.33 "Hg10 mi
9:50 PM54 °FClear.10 mph35%30.33 "Hg10 mi
9:20 PM55 °FSunny.10 mph31%30.33 "Hg10 mi
8:50 PM57 °FSunny.8 mph29%30.33 "Hg10 mi
8:20 PM57 °FSunny.10 mph27%30.33 "Hg10 mi
7:50 PM59 °FPassing clouds.8 mph29%30.30 "HgN/A
7:20 PM59 °FPassing clouds.8 mph29%30.30 "HgN/A
6:50 PM61 °FPassing clouds.7 mph25%30.33 "HgN/A
6:20 PM61 °FPassing clouds.8 mph23%30.33 "HgN/A
5:50 PM61 °FPassing clouds.12 mph23%30.33 "HgN/A
5:20 PM61 °FPassing clouds.9 mph25%30.33 "HgN/A
4:50 PM61 °FPassing clouds.10 mph27%30.33 "HgN/A
4:20 PM59 °FSunny.7 mph27%30.33 "Hg10 mi
3:50 PM59 °FPassing clouds.9 mph31%30.33 "HgN/A
3:20 PM59 °FPassing clouds.9 mph29%30.36 "HgN/A
2:50 PM59 °FPassing clouds.8 mph31%30.36 "HgN/A
2:20 PM59 °FSunny.7 mph31%30.36 "Hg10 mi
1:50 PM59 °FPassing clouds.12 mph27%30.36 "HgN/A
1:20 PM57 °FSunny.7 mph33%30.36 "Hg10 mi
12:50 PM57 °FSunny.6 mph41%30.36 "Hg10 mi
12:20 PM55 °FPassing clouds.5 mph41%30.39 "HgN/A
11:50 AM55 °FPassing clouds.7 mph44%30.39 "HgN/A
11:20 AM54 °FPassing clouds.6 mph47%30.39 "HgN/A
10:50 AM54 °FPassing clouds.9 mph47%30.39 "HgN/A
10:20 AM52 °FPassing clouds.9 mph54%30.39 "HgN/A
9:50 AM52 °FPassing clouds.9 mph54%30.39 "HgN/A
9:20 AM52 °FPassing clouds.8 mph54%30.39 "HgN/A
8:50 AM48 °FPassing clouds.3 mph62%30.39 "HgN/A
8:20 AM46 °FPassing clouds.3 mph66%30.39 "HgN/A
7:50 AM46 °FSunny.2 mph66%30.39 "Hg10 mi
7:20 AM41 °FSunny.1 mph81%30.39 "Hg10 mi
6:50 AM37 °FClear.1 mph81%30.39 "Hg10 mi
6:20 AM34 °FClear.2 mph87%30.36 "Hg10 mi
5:50 AM32 °FClear.1 mph93%30.36 "Hg10 mi
5:20 AM34 °FClear.1 mph87%30.36 "Hg10 mi
Weather by CustomWeather, © 2016

See weather overviewHow to use our weather pages